sat.trackr.live / text

‹ back to catalog

STARLINK-34633

NORAD 64804 · 2025-150Q

PAYLOAD ACTIVE UNKNOWN

§ Identity

Operator
Country
US
Launch date
2025-07-16
Launch site
AFWTR
Launch vehicle
Mass (kg)
RCS (m²)

Purposes: comms

External: N2YO · Heavens-Above · Gunter

§ Orbital elements

Epoch: 2026-09-20T14:31:53.674176Z

Period
96.11 min
Inclination
70.0021°
Eccentricity
0.0003659
Mean motion
14.98334770 rev/d
Perigee alt
569.5 km
Apogee alt
574.6 km
Semi-major
6,950.2 km
B*
1.5468e-4
RAAN
2.9857°
Arg perigee
270.2486°
Mean anomaly
89.8254°
Rev number
6,571

§ Raw data

STARLINK-346331 64804U 25150Q   26263.60548234  .00001753  00000+0  15468-3 0  99982 64804  70.0021   2.9857 0003659 270.2486  89.8254 14.98334770 65718

JSON: /api/v1/satellites/64804 · /tle

For live sub-satellite position, see the globe view (requires WebGL).

§ Visibility from observer

Set your observer location to see the next 7 days of passes ≥ 10°. The values pass through the URL so the page stays shareable.

No JS? Fill the form by hand. The geolocation button needs JavaScript.